TimeMDT,TemperatureF,Dew PointF,Humidity,Sea Level PressureIn,VisibilityMPH,Wind Direction,Wind SpeedMPH,Gust SpeedMPH,PrecipitationIn,Events,Conditions,WindDirDegrees,DateUTC
12:15 AM,60.8,42.8,52,30.47,10.0,SW,12.7,27.6,N/A,,Overcast,220,2013-07-12 06:15:00
12:35 AM,59.0,42.8,55,30.46,10.0,SW,15.0,26.5,N/A,,Overcast,220,2013-07-12 06:35:00
12:55 AM,59.0,44.6,59,30.46,10.0,SW,11.5,28.8,N/A,,Overcast,220,2013-07-12 06:55:00
1:15 AM,59.0,44.6,59,30.46,10.0,SW,10.4,25.3,N/A,,Mostly Cloudy,220,2013-07-12 07:15:00
1:35 AM,57.2,42.8,59,30.46,10.0,SW,10.4,23.0,N/A,,Scattered Clouds,230,2013-07-12 07:35:00
1:55 AM,57.2,42.8,59,30.45,10.0,SW,12.7,19.6,N/A,,Clear,220,2013-07-12 07:55:00
2:15 AM,57.2,42.8,59,30.45,10.0,SW,13.8,20.7,N/A,,Scattered Clouds,230,2013-07-12 08:15:00
2:35 AM,55.4,42.8,63,30.44,10.0,SW,11.5,20.7,N/A,,Scattered Clouds,230,2013-07-12 08:35:00
2:54 AM,55.4,42.8,63,30.44,10.0,SW,13.8,21.9,N/A,,Clear,220,2013-07-12 08:54:00
3:15 AM,55.4,44.6,67,30.43,10.0,SW,13.8,23.0,N/A,,Clear,230,2013-07-12 09:15:00
3:35 AM,55.4,42.8,63,30.42,10.0,SW,13.8,23.0,N/A,,Clear,220,2013-07-12 09:35:00
3:54 AM,53.6,44.6,72,30.41,10.0,SW,9.2,17.3,N/A,,Clear,230,2013-07-12 09:54:00
4:15 AM,53.6,44.6,72,30.41,10.0,SW,11.5,18.4,N/A,,Clear,230,2013-07-12 10:15:00
4:35 AM,53.6,46.4,77,30.41,10.0,WSW,8.1,19.6,N/A,,Clear,240,2013-07-12 10:35:00
4:54 AM,53.6,46.4,77,30.41,10.0,WSW,10.4,18.4,N/A,,Clear,240,2013-07-12 10:54:00
5:15 AM,53.6,46.4,77,30.41,10.0,SW,9.2,18.4,N/A,,Clear,220,2013-07-12 11:15:00
5:35 AM,51.8,44.6,76,30.41,10.0,SW,10.4,19.6,N/A,,Clear,230,2013-07-12 11:35:00
5:55 AM,51.8,44.6,76,30.42,10.0,SW,11.5,18.4,N/A,,Clear,220,2013-07-12 11:55:00
6:15 AM,51.8,44.6,76,30.42,10.0,SW,10.4,20.7,N/A,,Clear,230,2013-07-12 12:15:00
6:35 AM,51.8,44.6,76,30.43,10.0,West,9.2,18.4,N/A,,Clear,260,2013-07-12 12:35:00
6:55 AM,50.0,42.8,76,30.43,10.0,SW,11.5,20.7,N/A,,Clear,220,2013-07-12 12:55:00
7:15 AM,51.8,44.6,76,30.44,10.0,WSW,9.2,20.7,N/A,,Clear,240,2013-07-12 13:15:00
7:34 AM,53.6,46.4,77,30.44,10.0,SW,10.4,18.4,N/A,,Clear,230,2013-07-12 13:34:00
7:54 AM,53.6,44.6,72,30.44,10.0,SW,10.4,20.7,N/A,,Clear,230,2013-07-12 13:54:00
8:15 AM,55.4,44.6,67,30.44,10.0,SW,10.4,23.0,N/A,,Clear,230,2013-07-12 14:15:00
8:34 AM,55.4,44.6,67,30.45,10.0,SW,11.5,18.4,N/A,,Clear,230,2013-07-12 14:34:00
8:55 AM,57.2,44.6,63,30.45,10.0,WSW,9.2,16.1,N/A,,Clear,240,2013-07-12 14:55:00
9:15 AM,59.0,46.4,63,30.45,10.0,SW,10.4,18.4,N/A,,Clear,230,2013-07-12 15:15:00
9:35 AM,62.6,46.4,55,30.46,10.0,SW,9.2,18.4,N/A,,Clear,230,2013-07-12 15:35:00
9:54 AM,64.4,46.4,52,30.46,10.0,WSW,8.1,23.0,N/A,,Clear,250,2013-07-12 15:54:00
10:15 AM,64.4,44.6,49,30.47,10.0,SW,10.4,20.7,N/A,,Clear,230,2013-07-12 16:15:00
10:34 AM,66.2,44.6,46,30.48,10.0,WSW,6.9,16.1,N/A,,Clear,240,2013-07-12 16:34:00
10:55 AM,68.0,42.8,40,30.48,10.0,SW,11.5,18.4,N/A,,Clear,220,2013-07-12 16:55:00
11:14 AM,69.8,44.6,40,30.48,10.0,SW,6.9,-,N/A,,Clear,230,2013-07-12 17:14:00
11:35 AM,68.0,42.8,40,30.47,10.0,West,6.9,-,N/A,,Scattered Clouds,270,2013-07-12 17:35:00
11:55 AM,64.4,42.8,45,30.48,10.0,WSW,5.8,-,N/A,,Mostly Cloudy,240,2013-07-12 17:55:00
12:15 PM,69.8,44.6,40,30.47,10.0,SW,6.9,-,N/A,,Mostly Cloudy,230,2013-07-12 18:15:00
12:35 PM,68.0,42.8,40,30.47,10.0,SW,8.1,-,N/A,,Mostly Cloudy,220,2013-07-12 18:35:00
12:55 PM,66.2,42.8,43,30.48,10.0,SSW,5.8,-,N/A,Thunderstorm,Thunderstorm,210,2013-07-12 18:55:00
1:15 PM,62.6,39.2,42,30.49,10.0,SW,13.8,27.6,N/A,Rain-Thunderstorm,Light Thunderstorms and Rain,220,2013-07-12 19:15:00
1:35 PM,64.4,39.2,40,30.46,10.0,SW,9.2,16.1,N/A,,Overcast,220,2013-07-12 19:35:00
1:55 PM,62.6,37.4,39,30.46,10.0,SW,6.9,-,N/A,Thunderstorm,Overcast,220,2013-07-12 19:55:00
2:14 PM,64.4,41.0,42,30.46,10.0,SW,8.1,-,N/A,Thunderstorm,Overcast,220,2013-07-12 20:14:00
2:34 PM,64.4,39.2,40,30.46,10.0,Calm,Calm,-,N/A,Thunderstorm,Thunderstorm,0,2013-07-12 20:34:00
2:55 PM,68.0,39.2,35,30.46,10.0,SSW,4.6,-,N/A,Thunderstorm,Scattered Clouds,210,2013-07-12 20:55:00
3:15 PM,64.4,42.8,45,30.46,10.0,SSW,9.2,-,N/A,Thunderstorm,Thunderstorm,210,2013-07-12 21:15:00
3:31 PM,64.4,42.8,45,30.46,10.0,SW,6.9,-,N/A,Thunderstorm,Overcast,220,2013-07-12 21:31:00
3:55 PM,62.6,42.8,48,30.45,10.0,SSW,9.2,-,N/A,Thunderstorm,Mostly Cloudy,210,2013-07-12 21:55:00
4:15 PM,62.6,41.0,45,30.45,10.0,SW,10.4,-,N/A,,Overcast,220,2013-07-12 22:15:00
4:34 PM,62.6,41.0,45,30.44,10.0,SW,5.8,-,N/A,,Overcast,220,2013-07-12 22:34:00
4:55 PM,62.6,42.8,48,30.44,10.0,WSW,5.8,-,N/A,,Overcast,250,2013-07-12 22:55:00
5:15 PM,60.8,42.8,52,30.44,10.0,WSW,4.6,-,N/A,Thunderstorm,Thunderstorm,240,2013-07-12 23:15:00
5:35 PM,62.6,44.6,52,30.43,10.0,WSW,10.4,-,N/A,Thunderstorm,Mostly Cloudy,240,2013-07-12 23:35:00
5:55 PM,62.6,44.6,52,30.44,10.0,SW,17.3,26.5,N/A,Thunderstorm,Scattered Clouds,230,2013-07-12 23:55:00
6:15 PM,59.0,46.4,63,30.43,10.0,SW,12.7,26.5,N/A,,Scattered Clouds,220,2013-07-13 00:15:00
6:35 PM,57.2,44.6,63,30.44,10.0,SW,13.8,25.3,N/A,,Scattered Clouds,230,2013-07-13 00:35:00
6:54 PM,55.4,44.6,67,30.44,10.0,SW,11.5,21.9,N/A,,Scattered Clouds,220,2013-07-13 00:54:00
7:15 PM,55.4,42.8,63,30.44,10.0,SW,12.7,20.7,N/A,,Scattered Clouds,220,2013-07-13 01:15:00
7:35 PM,55.4,42.8,63,30.44,10.0,SW,12.7,21.9,N/A,,Mostly Cloudy,220,2013-07-13 01:35:00
7:54 PM,55.4,42.8,63,30.44,10.0,SW,8.1,17.3,N/A,,Scattered Clouds,220,2013-07-13 01:54:00
8:16 PM,57.2,42.8,59,30.43,10.0,SW,8.1,-,N/A,,Clear,220,2013-07-13 02:16:00
8:35 PM,57.2,42.8,59,30.44,10.0,SW,8.1,-,N/A,,Clear,220,2013-07-13 02:35:00
8:55 PM,57.2,42.8,59,30.45,10.0,SW,8.1,-,N/A,,Clear,220,2013-07-13 02:55:00
9:16 PM,55.4,42.8,63,30.46,10.0,SW,10.4,19.6,N/A,,Scattered Clouds,220,2013-07-13 03:16:00
9:34 PM,57.2,42.8,59,30.46,10.0,SW,10.4,16.1,N/A,,Mostly Cloudy,220,2013-07-13 03:34:00
9:55 PM,57.2,42.8,59,30.48,10.0,SW,11.5,18.4,N/A,,Overcast,220,2013-07-13 03:55:00
10:15 PM,59.0,42.8,55,30.49,10.0,SW,10.4,17.3,N/A,,Overcast,220,2013-07-13 04:15:00
10:35 PM,59.0,44.6,59,30.49,10.0,SW,10.4,17.3,N/A,,Overcast,220,2013-07-13 04:35:00
10:55 PM,59.0,42.8,55,30.50,10.0,Calm,Calm,-,N/A,,Overcast,0,2013-07-13 04:55:00
11:15 PM,59.0,42.8,55,30.51,10.0,Calm,Calm,-,N/A,,Overcast,0,2013-07-13 05:15:00
11:36 PM,57.2,42.8,59,30.52,10.0,Calm,Calm,-,N/A,,Overcast,0,2013-07-13 05:36:00
11:54 PM,57.2,42.8,59,30.52,10.0,Calm,Calm,-,N/A,,Overcast,0,2013-07-13 05:54:00